Year,Month,Day,Hour,Minute,Value (Times are PST for temperature in C)
2009,08,01,00,00,19.50
2009,08,01,00,01,19.50
2009,08,01,00,02,19.50
2009,08,01,00,03,19.40
2009,08,01,00,04,19.40
2009,08,01,00,05,19.40
2009,08,01,00,06,19.40
2009,08,01,00,07,19.40
2009,08,01,00,08,19.40
2009,08,01,00,09,19.40
2009,08,01,00,10,19.30
2009,08,01,00,11,19.30
2009,08,01,00,12,19.30
2009,08,01,00,13,19.30
2009,08,01,00,14,19.30
2009,08,01,00,15,19.30
2009,08,01,00,16,19.20
2009,08,01,00,17,19.20
2009,08,01,00,18,19.20
2009,08,01,00,19,19.20
2009,08,01,00,20,19.20
2009,08,01,00,21,19.10
2009,08,01,00,22,19.10
2009,08,01,00,23,19.10
2009,08,01,00,24,19.10
2009,08,01,00,25,19.10
2009,08,01,00,26,19.10
2009,08,01,00,27,19.10
2009,08,01,00,28,19.00
2009,08,01,00,29,19.00
2009,08,01,00,30,19.00
2009,08,01,00,31,19.00
2009,08,01,00,32,19.00
2009,08,01,00,33,19.00
2009,08,01,00,34,18.90
2009,08,01,00,35,18.90
2009,08,01,00,36,18.90
2009,08,01,00,37,18.90
2009,08,01,00,38,18.90
2009,08,01,00,39,18.90
2009,08,01,00,40,18.90
2009,08,01,00,41,18.90
2009,08,01,00,42,18.90
2009,08,01,00,43,18.90
2009,08,01,00,44,18.90
2009,08,01,00,45,18.80
2009,08,01,00,46,18.80
2009,08,01,00,47,18.80
2009,08,01,00,48,18.80
2009,08,01,00,49,18.80
2009,08,01,00,50,18.80
2009,08,01,00,51,18.80
2009,08,01,00,52,18.80
2009,08,01,00,53,18.80
2009,08,01,00,54,18.80
2009,08,01,00,55,18.80
2009,08,01,00,56,18.80
2009,08,01,00,57,18.80
2009,08,01,00,58,18.80
2009,08,01,00,59,18.80
2009,08,01,01,00,18.70
2009,08,01,01,01,18.70
2009,08,01,01,02,18.70
2009,08,01,01,03,18.70
2009,08,01,01,04,18.70
2009,08,01,01,05,18.70
2009,08,01,01,06,18.70
2009,08,01,01,07,18.70
2009,08,01,01,08,18.70
2009,08,01,01,09,18.70
2009,08,01,01,10,18.70
2009,08,01,01,11,18.70
2009,08,01,01,12,18.70
2009,08,01,01,13,18.60
2009,08,01,01,14,18.60
2009,08,01,01,15,18.60
2009,08,01,01,16,18.60
2009,08,01,01,17,18.60
2009,08,01,01,18,18.60
2009,08,01,01,19,18.60
2009,08,01,01,20,18.60
2009,08,01,01,21,18.60
2009,08,01,01,22,18.60
2009,08,01,01,23,18.60
2009,08,01,01,24,18.60
2009,08,01,01,25,18.60
2009,08,01,01,26,18.60
2009,08,01,01,27,18.50
2009,08,01,01,28,18.50
2009,08,01,01,29,18.50
2009,08,01,01,30,18.50
2009,08,01,01,31,18.50
2009,08,01,01,32,18.50
2009,08,01,01,33,18.40
2009,08,01,01,34,18.40
2009,08,01,01,35,18.40
2009,08,01,01,36,18.40
2009,08,01,01,37,18.40
2009,08,01,01,38,18.40
2009,08,01,01,39,18.40
2009,08,01,01,40,18.30
2009,08,01,01,41,18.30
2009,08,01,01,42,18.30
2009,08,01,01,43,18.30
2009,08,01,01,44,18.30
2009,08,01,01,45,18.30
2009,08,01,01,46,18.30
2009,08,01,01,47,18.30
2009,08,01,01,48,18.30
2009,08,01,01,49,18.30
2009,08,01,01,50,18.20
2009,08,01,01,51,18.20
2009,08,01,01,52,18.20
2009,08,01,01,53,18.20
2009,08,01,01,54,18.20
2009,08,01,01,55,18.20
2009,08,01,01,56,18.20
2009,08,01,01,57,18.20
2009,08,01,01,58,18.20
2009,08,01,01,59,18.20
2009,08,01,02,00,18.20
2009,08,01,02,01,18.20
2009,08,01,02,02,18.20
2009,08,01,02,03,18.10
2009,08,01,02,04,18.10
2009,08,01,02,05,18.10
2009,08,01,02,06,18.10
2009,08,01,02,07,18.10
2009,08,01,02,08,18.10
2009,08,01,02,09,18.10
2009,08,01,02,10,18.10
2009,08,01,02,11,18.10
2009,08,01,02,12,18.00
2009,08,01,02,13,18.00
2009,08,01,02,14,18.00
2009,08,01,02,15,18.00
2009,08,01,02,16,17.90
2009,08,01,02,17,17.90
2009,08,01,02,18,17.90
2009,08,01,02,19,17.90
2009,08,01,02,20,17.90
2009,08,01,02,21,17.80
2009,08,01,02,22,17.80
2009,08,01,02,23,17.80
2009,08,01,02,24,17.80
2009,08,01,02,25,17.80
2009,08,01,02,26,17.80
2009,08,01,02,27,17.80
2009,08,01,02,28,17.80
2009,08,01,02,29,17.70
2009,08,01,02,30,17.70
2009,08,01,02,31,17.70
2009,08,01,02,32,17.70
2009,08,01,02,33,17.70
2009,08,01,02,34,17.70
2009,08,01,02,35,17.70
2009,08,01,02,36,17.70
2009,08,01,02,37,17.70
2009,08,01,02,38,17.70
2009,08,01,02,39,17.60
2009,08,01,02,40,17.60
2009,08,01,02,41,17.60
2009,08,01,02,42,17.60
2009,08,01,02,43,17.60
2009,08,01,02,44,17.60
2009,08,01,02,45,17.60
2009,08,01,02,46,17.60
2009,08,01,02,47,17.50
2009,08,01,02,48,17.50
2009,08,01,02,49,17.50
2009,08,01,02,50,17.50
2009,08,01,02,51,17.50
2009,08,01,02,52,17.40
2009,08,01,02,53,17.40
2009,08,01,02,54,17.40
2009,08,01,02,55,17.40
2009,08,01,02,56,17.40
2009,08,01,02,57,17.40
2009,08,01,02,58,17.30
2009,08,01,02,59,17.30
2009,08,01,03,00,17.30
2009,08,01,03,01,17.30
2009,08,01,03,02,17.30
2009,08,01,03,03,17.30
2009,08,01,03,04,17.30
2009,08,01,03,05,17.20
2009,08,01,03,06,17.20
2009,08,01,03,07,17.20
2009,08,01,03,08,17.20
2009,08,01,03,09,17.20
2009,08,01,03,10,17.20
2009,08,01,03,11,17.20
2009,08,01,03,12,17.20
2009,08,01,03,13,17.20
2009,08,01,03,14,17.10
2009,08,01,03,15,17.10
2009,08,01,03,16,17.10
2009,08,01,03,17,17.10
2009,08,01,03,18,17.10
2009,08,01,03,19,17.10
2009,08,01,03,20,17.10
2009,08,01,03,21,17.10
2009,08,01,03,22,17.10
2009,08,01,03,23,17.10
2009,08,01,03,24,17.10
2009,08,01,03,25,17.10
2009,08,01,03,26,17.00
2009,08,01,03,27,17.00
2009,08,01,03,28,17.00
2009,08,01,03,29,17.00
2009,08,01,03,30,17.00
2009,08,01,03,31,16.90
2009,08,01,03,32,16.90
2009,08,01,03,33,16.90
2009,08,01,03,34,16.90
2009,08,01,03,35,16.90
2009,08,01,03,36,16.90
2009,08,01,03,37,16.90
2009,08,01,03,38,16.90
2009,08,01,03,39,16.90
2009,08,01,03,40,16.90
2009,08,01,03,41,16.90
2009,08,01,03,42,16.90
2009,08,01,03,43,16.90
2009,08,01,03,44,16.90
2009,08,01,03,45,16.90
2009,08,01,03,46,16.90
2009,08,01,03,47,16.80
2009,08,01,03,48,16.80
2009,08,01,03,49,16.80
2009,08,01,03,50,16.80
2009,08,01,03,51,16.80
2009,08,01,03,52,16.80
2009,08,01,03,53,16.80
2009,08,01,03,54,16.80
2009,08,01,03,55,16.80
2009,08,01,03,56,16.80
2009,08,01,03,57,16.80
2009,08,01,03,58,16.80
2009,08,01,03,59,16.80
2009,08,01,04,00,16.80
2009,08,01,04,01,16.80
2009,08,01,04,02,16.70
2009,08,01,04,03,16.80
2009,08,01,04,04,16.70
2009,08,01,04,05,16.70
2009,08,01,04,06,16.70
2009,08,01,04,07,16.70
2009,08,01,04,08,16.70
2009,08,01,04,09,16.70
2009,08,01,04,10,16.70
2009,08,01,04,11,16.70
2009,08,01,04,12,16.70
2009,08,01,04,13,16.70
2009,08,01,04,14,16.70
2009,08,01,04,15,16.70
2009,08,01,04,16,16.70
2009,08,01,04,17,16.70
2009,08,01,04,18,16.70
2009,08,01,04,19,16.70
2009,08,01,04,20,16.70
2009,08,01,04,21,16.70
2009,08,01,04,22,16.70
2009,08,01,04,23,16.70
2009,08,01,04,24,16.70
2009,08,01,04,25,16.70
2009,08,01,04,26,16.70
2009,08,01,04,27,16.70
2009,08,01,04,28,16.70
2009,08,01,04,29,16.70
2009,08,01,04,30,16.70
2009,08,01,04,31,16.70
2009,08,01,04,32,16.70
2009,08,01,04,33,16.70
2009,08,01,04,34,16.70
2009,08,01,04,35,16.70
2009,08,01,04,36,16.60
2009,08,01,04,37,16.60
2009,08,01,04,38,16.60
2009,08,01,04,39,16.60
2009,08,01,04,40,16.60
2009,08,01,04,41,16.60
2009,08,01,04,42,16.60
2009,08,01,04,43,16.60
2009,08,01,04,44,16.60
2009,08,01,04,45,16.50
2009,08,01,04,46,16.50
2009,08,01,04,47,16.50
2009,08,01,04,48,16.50
2009,08,01,04,49,16.50
2009,08,01,04,50,16.50
2009,08,01,04,51,16.40
2009,08,01,04,52,16.40
2009,08,01,04,53,16.40
2009,08,01,04,54,16.40
2009,08,01,04,55,16.40
2009,08,01,04,56,16.40
2009,08,01,04,57,16.40
2009,08,01,04,58,16.30
2009,08,01,04,59,16.30
2009,08,01,05,00,16.30
2009,08,01,05,01,16.30
2009,08,01,05,02,16.30
2009,08,01,05,03,16.30
2009,08,01,05,04,16.30
2009,08,01,05,05,16.30
2009,08,01,05,06,16.30
2009,08,01,05,07,16.30
2009,08,01,05,08,16.30
2009,08,01,05,09,16.40
2009,08,01,05,10,16.40
2009,08,01,05,11,16.40
2009,08,01,05,12,16.40
2009,08,01,05,13,16.30
2009,08,01,05,14,16.30
2009,08,01,05,15,16.40
2009,08,01,05,16,16.30
2009,08,01,05,17,16.30
2009,08,01,05,18,16.30
2009,08,01,05,19,16.30
2009,08,01,05,20,16.30
2009,08,01,05,21,16.30
2009,08,01,05,22,16.30
2009,08,01,05,23,16.30
2009,08,01,05,24,16.30
2009,08,01,05,25,16.30
2009,08,01,05,26,16.30
2009,08,01,05,27,16.30
2009,08,01,05,28,16.30
2009,08,01,05,29,16.30
2009,08,01,05,30,16.30
2009,08,01,05,31,16.30
2009,08,01,05,32,16.30
2009,08,01,05,33,16.30
2009,08,01,05,34,16.30
2009,08,01,05,35,16.30
2009,08,01,05,36,16.30
2009,08,01,05,37,16.30
2009,08,01,05,38,16.30
2009,08,01,05,39,16.30
2009,08,01,05,40,16.30
2009,08,01,05,41,16.30
2009,08,01,05,42,16.30
2009,08,01,05,43,16.30
2009,08,01,05,44,16.30
2009,08,01,05,45,16.30
2009,08,01,05,46,16.30
2009,08,01,05,47,16.30
2009,08,01,05,48,16.30
2009,08,01,05,49,16.30
2009,08,01,05,50,16.30
2009,08,01,05,51,16.30
2009,08,01,05,52,16.20
2009,08,01,05,53,16.20
2009,08,01,05,54,16.20
2009,08,01,05,55,16.20
2009,08,01,05,56,16.20
2009,08,01,05,57,16.20
2009,08,01,05,58,16.20
2009,08,01,05,59,16.20
2009,08,01,06,00,16.20
2009,08,01,06,01,16.20
2009,08,01,06,02,16.20
2009,08,01,06,03,16.20
2009,08,01,06,04,16.20
2009,08,01,06,05,16.20
2009,08,01,06,06,16.20
2009,08,01,06,07,16.20
2009,08,01,06,08,16.20
2009,08,01,06,09,16.20
2009,08,01,06,10,16.20
2009,08,01,06,11,16.20
2009,08,01,06,12,16.20
2009,08,01,06,13,16.20
2009,08,01,06,14,16.20
2009,08,01,06,15,16.20
2009,08,01,06,16,16.20
2009,08,01,06,17,16.20
2009,08,01,06,18,16.20
2009,08,01,06,19,16.20
2009,08,01,06,20,16.20
2009,08,01,06,21,16.20
2009,08,01,06,22,16.20
2009,08,01,06,23,16.20
2009,08,01,06,24,16.20
2009,08,01,06,25,16.20
2009,08,01,06,26,16.30
2009,08,01,06,27,16.30
2009,08,01,06,28,16.30
2009,08,01,06,29,16.30
2009,08,01,06,30,16.30
2009,08,01,06,31,16.30
2009,08,01,06,32,16.30
2009,08,01,06,33,16.30
2009,08,01,06,34,16.30
2009,08,01,06,35,16.30
2009,08,01,06,36,16.30
2009,08,01,06,37,16.30
2009,08,01,06,38,16.30
2009,08,01,06,39,16.30
2009,08,01,06,40,16.40
2009,08,01,06,41,16.40
2009,08,01,06,42,16.40
2009,08,01,06,43,16.40
2009,08,01,06,44,16.40
2009,08,01,06,45,16.40
2009,08,01,06,46,16.40
2009,08,01,06,47,16.50
2009,08,01,06,48,16.50
2009,08,01,06,49,16.50
2009,08,01,06,50,16.50
2009,08,01,06,51,16.50
2009,08,01,06,52,16.50
2009,08,01,06,53,16.60
2009,08,01,06,54,16.60
2009,08,01,06,55,16.60
2009,08,01,06,56,16.60
2009,08,01,06,57,16.60
2009,08,01,06,58,16.60
2009,08,01,06,59,16.50
2009,08,01,07,00,16.50
2009,08,01,07,01,16.50
2009,08,01,07,02,16.50
2009,08,01,07,03,16.50
2009,08,01,07,04,16.50
2009,08,01,07,05,16.50
2009,08,01,07,06,16.50
2009,08,01,07,07,16.50
2009,08,01,07,08,16.50
2009,08,01,07,09,16.50
2009,08,01,07,10,16.50
2009,08,01,07,11,16.50
2009,08,01,07,12,16.50
2009,08,01,07,13,16.50
2009,08,01,07,14,16.50
2009,08,01,07,15,16.50
2009,08,01,07,16,16.50
2009,08,01,07,17,16.50
2009,08,01,07,18,16.50
2009,08,01,07,19,16.50
2009,08,01,07,20,16.50
2009,08,01,07,21,16.60
2009,08,01,07,22,16.60
2009,08,01,07,23,16.60
2009,08,01,07,24,16.60
2009,08,01,07,25,16.60
2009,08,01,07,26,16.60
2009,08,01,07,27,16.60
2009,08,01,07,28,16.60
2009,08,01,07,29,16.60
2009,08,01,07,30,16.60
2009,08,01,07,31,16.60
2009,08,01,07,32,16.60
2009,08,01,07,33,16.70
2009,08,01,07,34,16.70
2009,08,01,07,35,16.70
2009,08,01,07,36,16.70
2009,08,01,07,37,16.70
2009,08,01,07,38,16.70
2009,08,01,07,39,16.70
2009,08,01,07,40,16.70
2009,08,01,07,41,16.70
2009,08,01,07,42,16.80
2009,08,01,07,43,16.80
2009,08,01,07,44,16.80
2009,08,01,07,45,16.80
2009,08,01,07,46,16.80
2009,08,01,07,47,16.80
2009,08,01,07,48,16.90
2009,08,01,07,49,16.90
2009,08,01,07,50,16.90
2009,08,01,07,51,16.90
2009,08,01,07,52,17.00
2009,08,01,07,53,17.00
2009,08,01,07,54,17.00
2009,08,01,07,55,17.10
2009,08,01,07,56,17.10
2009,08,01,07,57,17.10
2009,08,01,07,58,17.10
2009,08,01,07,59,17.10
2009,08,01,08,00,17.20
2009,08,01,08,01,17.20
2009,08,01,08,02,17.20
2009,08,01,08,03,17.20
2009,08,01,08,04,17.30
2009,08,01,08,05,17.30
2009,08,01,08,06,17.30
2009,08,01,08,07,17.30
2009,08,01,08,08,17.40
2009,08,01,08,09,17.40
2009,08,01,08,10,17.40
2009,08,01,08,11,17.50
2009,08,01,08,12,17.50
2009,08,01,08,13,17.50
2009,08,01,08,14,17.60
2009,08,01,08,15,17.60
2009,08,01,08,16,17.60
2009,08,01,08,17,17.70
2009,08,01,08,18,17.70
2009,08,01,08,19,17.80
2009,08,01,08,20,17.80
2009,08,01,08,21,17.80
2009,08,01,08,22,17.90
2009,08,01,08,23,17.90
2009,08,01,08,24,17.90
2009,08,01,08,25,18.00
2009,08,01,08,26,18.00
2009,08,01,08,27,18.10
2009,08,01,08,28,18.10
2009,08,01,08,29,18.10
2009,08,01,08,30,18.20
2009,08,01,08,31,18.20
2009,08,01,08,32,18.20
2009,08,01,08,33,18.20
2009,08,01,08,34,18.30
2009,08,01,08,35,18.30
2009,08,01,08,36,18.30
2009,08,01,08,37,18.40
2009,08,01,08,38,18.40
2009,08,01,08,39,18.40
2009,08,01,08,40,18.50
2009,08,01,08,41,18.50
2009,08,01,08,42,18.60
2009,08,01,08,43,18.60
2009,08,01,08,44,18.60
2009,08,01,08,45,18.60
2009,08,01,08,46,18.70
2009,08,01,08,47,18.70
2009,08,01,08,48,18.70
2009,08,01,08,49,18.70
2009,08,01,08,50,18.80
2009,08,01,08,51,18.80
2009,08,01,08,52,18.80
2009,08,01,08,53,18.80
2009,08,01,08,54,18.90
2009,08,01,08,55,18.90
2009,08,01,08,56,18.90
2009,08,01,08,57,19.00
2009,08,01,08,58,19.00
2009,08,01,08,59,19.10
2009,08,01,09,00,19.10
2009,08,01,09,01,19.20
2009,08,01,09,02,19.20
2009,08,01,09,03,19.20
2009,08,01,09,04,19.30
2009,08,01,09,05,19.30
2009,08,01,09,06,19.40
2009,08,01,09,07,19.40
2009,08,01,09,08,19.50
2009,08,01,09,09,19.50
2009,08,01,09,10,19.60
2009,08,01,09,11,19.60
2009,08,01,09,12,19.70
2009,08,01,09,13,19.80
2009,08,01,09,14,19.80
2009,08,01,09,15,19.90
2009,08,01,09,16,19.90
2009,08,01,09,17,20.00
2009,08,01,09,18,20.00
2009,08,01,09,19,20.00
2009,08,01,09,20,20.10
2009,08,01,09,21,20.10
2009,08,01,09,22,20.20
2009,08,01,09,23,20.20
2009,08,01,09,24,20.20
2009,08,01,09,25,20.30
2009,08,01,09,26,20.30
2009,08,01,09,27,20.30
2009,08,01,09,28,20.40
2009,08,01,09,29,20.40
2009,08,01,09,30,20.50
2009,08,01,09,31,20.50
2009,08,01,09,32,20.60
2009,08,01,09,33,20.60
2009,08,01,09,34,20.70
2009,08,01,09,35,20.70
2009,08,01,09,36,20.80
2009,08,01,09,37,20.80
2009,08,01,09,38,20.90
2009,08,01,09,39,20.90
2009,08,01,09,40,20.90
2009,08,01,09,41,21.00
2009,08,01,09,42,21.00
2009,08,01,09,43,21.10
2009,08,01,09,44,21.10
2009,08,01,09,45,21.20
2009,08,01,09,46,21.20
2009,08,01,09,47,21.30
2009,08,01,09,48,21.30
2009,08,01,09,49,21.30
2009,08,01,09,50,21.40
2009,08,01,09,51,21.40
2009,08,01,09,52,21.50
2009,08,01,09,53,21.50
2009,08,01,09,54,21.60
2009,08,01,09,55,21.60
2009,08,01,09,56,21.70
2009,08,01,09,57,21.70
2009,08,01,09,58,21.80
2009,08,01,09,59,21.80
2009,08,01,10,00,21.80
2009,08,01,10,01,21.90
2009,08,01,10,02,21.90
2009,08,01,10,03,21.90
2009,08,01,10,04,22.00
2009,08,01,10,05,22.10
2009,08,01,10,06,22.10
2009,08,01,10,07,22.10
2009,08,01,10,08,22.20
2009,08,01,10,09,22.20
2009,08,01,10,10,22.30
2009,08,01,10,11,22.40
2009,08,01,10,12,22.40
2009,08,01,10,13,22.50
2009,08,01,10,14,22.60
2009,08,01,10,15,22.60
2009,08,01,10,16,22.70
2009,08,01,10,17,22.70
2009,08,01,10,18,22.80
2009,08,01,10,19,22.80
2009,08,01,10,20,22.90
2009,08,01,10,21,22.90
2009,08,01,10,22,23.00
2009,08,01,10,23,23.00
2009,08,01,10,24,23.10
2009,08,01,10,25,23.10
2009,08,01,10,26,23.10
2009,08,01,10,27,23.20
2009,08,01,10,28,23.20
2009,08,01,10,29,23.20
2009,08,01,10,30,23.30
2009,08,01,10,31,23.30
2009,08,01,10,32,23.30
2009,08,01,10,33,23.40
2009,08,01,10,34,23.40
2009,08,01,10,35,23.50
2009,08,01,10,36,23.50
2009,08,01,10,37,23.60
2009,08,01,10,38,23.60
2009,08,01,10,39,23.70
2009,08,01,10,40,23.70
2009,08,01,10,41,23.80
2009,08,01,10,42,23.90
2009,08,01,10,43,24.00
2009,08,01,10,44,24.10
2009,08,01,10,45,24.10
2009,08,01,10,46,24.20
2009,08,01,10,47,24.30
2009,08,01,10,48,24.50
2009,08,01,10,49,24.60
2009,08,01,10,50,24.70
2009,08,01,10,51,24.80
2009,08,01,10,52,24.90
2009,08,01,10,53,24.90
2009,08,01,10,54,25.00
2009,08,01,10,55,25.00
2009,08,01,10,56,25.10
2009,08,01,10,57,25.10
2009,08,01,10,58,25.20
2009,08,01,10,59,25.30
2009,08,01,11,00,25.30
2009,08,01,11,01,25.40
2009,08,01,11,02,25.50
2009,08,01,11,03,25.60
2009,08,01,11,04,25.70
2009,08,01,11,05,25.70
2009,08,01,11,06,25.90
2009,08,01,11,07,25.90
2009,08,01,11,08,25.90
2009,08,01,11,09,26.00
2009,08,01,11,10,25.90
2009,08,01,11,11,26.00
2009,08,01,11,12,26.10
2009,08,01,11,13,26.20
2009,08,01,11,14,26.20
2009,08,01,11,15,26.30
2009,08,01,11,16,26.30
2009,08,01,11,17,26.40
2009,08,01,11,18,26.50
2009,08,01,11,19,26.50
2009,08,01,11,20,26.60
2009,08,01,11,21,26.70
2009,08,01,11,22,26.80
2009,08,01,11,23,26.80
2009,08,01,11,24,26.90
2009,08,01,11,25,27.00
2009,08,01,11,26,27.10
2009,08,01,11,27,27.20
2009,08,01,11,28,27.30
2009,08,01,11,29,27.30
2009,08,01,11,30,27.30
2009,08,01,11,31,27.30
2009,08,01,11,32,27.30
2009,08,01,11,33,27.30
2009,08,01,11,34,27.40
2009,08,01,11,35,27.50
2009,08,01,11,36,27.50
2009,08,01,11,37,27.50
2009,08,01,11,38,27.60
2009,08,01,11,39,27.70
2009,08,01,11,40,27.60
2009,08,01,11,41,27.60
2009,08,01,11,42,27.50
2009,08,01,11,43,27.50
2009,08,01,11,44,27.60
2009,08,01,11,45,27.60
2009,08,01,11,46,27.60
2009,08,01,11,47,27.70
2009,08,01,11,48,27.70
2009,08,01,11,49,27.80
2009,08,01,11,50,27.80
2009,08,01,11,51,27.90
2009,08,01,11,52,27.90
2009,08,01,11,53,28.00
2009,08,01,11,54,28.10
2009,08,01,11,55,28.20
2009,08,01,11,56,28.20
2009,08,01,11,57,28.20
2009,08,01,11,58,28.20
2009,08,01,11,59,28.20
2009,08,01,12,00,28.20
2009,08,01,12,01,28.20
2009,08,01,12,02,28.20
2009,08,01,12,03,28.10
2009,08,01,12,04,28.00
2009,08,01,12,05,27.90
2009,08,01,12,06,27.90
2009,08,01,12,07,27.80
2009,08,01,12,08,27.80
2009,08,01,12,09,27.90
2009,08,01,12,10,27.90
2009,08,01,12,11,28.00
2009,08,01,12,12,28.10
2009,08,01,12,13,28.20
2009,08,01,12,14,28.30
2009,08,01,12,15,28.40
2009,08,01,12,16,28.50
2009,08,01,12,17,28.50
2009,08,01,12,18,28.50
2009,08,01,12,19,28.60
2009,08,01,12,20,28.70
2009,08,01,12,21,28.70
2009,08,01,12,22,28.80
2009,08,01,12,23,28.80
2009,08,01,12,24,28.80
2009,08,01,12,25,28.90
2009,08,01,12,26,28.90
2009,08,01,12,27,28.90
2009,08,01,12,28,29.00
2009,08,01,12,29,29.00
2009,08,01,12,30,29.00
2009,08,01,12,31,29.00
2009,08,01,12,32,29.00
2009,08,01,12,33,29.00
2009,08,01,12,34,29.00
2009,08,01,12,35,29.10
2009,08,01,12,36,29.20
2009,08,01,12,37,29.20
2009,08,01,12,38,29.20
2009,08,01,12,39,29.20
2009,08,01,12,40,29.30
2009,08,01,12,41,29.30
2009,08,01,12,42,29.30
2009,08,01,12,43,29.30
2009,08,01,12,44,29.30
2009,08,01,12,45,29.30
2009,08,01,12,46,29.30
2009,08,01,12,47,29.20
2009,08,01,12,48,29.10
2009,08,01,12,49,29.10
2009,08,01,12,50,29.10
2009,08,01,12,51,29.20
2009,08,01,12,52,29.20
2009,08,01,12,53,29.20
2009,08,01,12,54,29.30
2009,08,01,12,55,29.30
2009,08,01,12,56,29.30
2009,08,01,12,57,29.40
2009,08,01,12,58,29.40
2009,08,01,12,59,29.40
2009,08,01,13,00,29.30
2009,08,01,13,01,29.30
2009,08,01,13,02,29.30
2009,08,01,13,03,29.20
2009,08,01,13,04,29.10
2009,08,01,13,05,29.00
2009,08,01,13,06,28.90
2009,08,01,13,07,28.80
2009,08,01,13,08,28.80
2009,08,01,13,09,28.70
2009,08,01,13,10,28.70
2009,08,01,13,11,28.70
2009,08,01,13,12,28.70
2009,08,01,13,13,28.70
2009,08,01,13,14,28.70
2009,08,01,13,15,28.80
2009,08,01,13,16,28.80
2009,08,01,13,17,28.70
2009,08,01,13,18,28.60
2009,08,01,13,19,28.40
2009,08,01,13,20,28.30
2009,08,01,13,21,28.30
2009,08,01,13,22,28.30
2009,08,01,13,23,28.40
2009,08,01,13,24,28.50
2009,08,01,13,25,28.60
2009,08,01,13,26,28.60
2009,08,01,13,27,28.70
2009,08,01,13,28,28.80
2009,08,01,13,29,28.90
2009,08,01,13,30,29.00
2009,08,01,13,31,29.10
2009,08,01,13,32,29.20
2009,08,01,13,33,29.30
2009,08,01,13,34,29.40
2009,08,01,13,35,29.50
2009,08,01,13,36,29.60
2009,08,01,13,37,29.70
2009,08,01,13,38,29.70
2009,08,01,13,39,29.80
2009,08,01,13,40,29.90
2009,08,01,13,41,29.90
2009,08,01,13,42,30.00
2009,08,01,13,43,30.00
2009,08,01,13,44,30.00
2009,08,01,13,45,30.00
2009,08,01,13,46,30.10
2009,08,01,13,47,30.10
2009,08,01,13,48,30.20
2009,08,01,13,49,30.30
2009,08,01,13,50,30.40
2009,08,01,13,51,30.40
2009,08,01,13,52,30.40
2009,08,01,13,53,30.50
2009,08,01,13,54,30.60
2009,08,01,13,55,30.60
2009,08,01,13,56,30.70
2009,08,01,13,57,30.80
2009,08,01,13,58,30.80
2009,08,01,13,59,30.90
2009,08,01,14,00,30.90
2009,08,01,14,01,31.00
2009,08,01,14,02,31.00
2009,08,01,14,03,31.10
2009,08,01,14,04,31.10
2009,08,01,14,05,31.20
2009,08,01,14,06,31.20
2009,08,01,14,07,31.20
2009,08,01,14,08,31.20
2009,08,01,14,09,31.20
2009,08,01,14,10,31.20
2009,08,01,14,11,31.20
2009,08,01,14,12,31.30
2009,08,01,14,13,31.30
2009,08,01,14,14,31.30
2009,08,01,14,15,31.40
2009,08,01,14,16,31.40
2009,08,01,14,17,31.40
2009,08,01,14,18,31.40
2009,08,01,14,19,31.40
2009,08,01,14,20,31.50
2009,08,01,14,21,31.50
2009,08,01,14,22,31.50
2009,08,01,14,23,31.60
2009,08,01,14,24,31.60
2009,08,01,14,25,31.80
2009,08,01,14,26,31.80
2009,08,01,14,27,32.00
2009,08,01,14,28,32.00
2009,08,01,14,29,32.10
2009,08,01,14,30,32.00
2009,08,01,14,31,32.00
2009,08,01,14,32,31.90
2009,08,01,14,33,31.90
2009,08,01,14,34,31.90
2009,08,01,14,35,31.80
2009,08,01,14,36,31.80
2009,08,01,14,37,31.70
2009,08,01,14,38,31.70
2009,08,01,14,39,31.70
2009,08,01,14,40,31.60
2009,08,01,14,41,31.40
2009,08,01,14,42,31.40
2009,08,01,14,43,31.40
2009,08,01,14,44,31.40
2009,08,01,14,45,31.40
2009,08,01,14,46,31.40
2009,08,01,14,47,31.40
2009,08,01,14,48,31.50
2009,08,01,14,49,31.60
2009,08,01,14,50,31.70
2009,08,01,14,51,31.80
2009,08,01,14,52,31.90
2009,08,01,14,53,32.10
2009,08,01,14,54,32.20
2009,08,01,14,55,32.30
2009,08,01,14,56,32.40
2009,08,01,14,57,32.40
2009,08,01,14,58,32.40
2009,08,01,14,59,32.50
2009,08,01,15,00,32.50
2009,08,01,15,01,32.40
2009,08,01,15,02,32.40
2009,08,01,15,03,32.40
2009,08,01,15,04,32.40
2009,08,01,15,05,32.30
2009,08,01,15,06,32.20
2009,08,01,15,07,32.20
2009,08,01,15,08,32.20
2009,08,01,15,09,32.10
2009,08,01,15,10,32.10
2009,08,01,15,11,32.10
2009,08,01,15,12,32.10
2009,08,01,15,13,32.20
2009,08,01,15,14,32.20
2009,08,01,15,15,32.30
2009,08,01,15,16,32.30
2009,08,01,15,17,32.40
2009,08,01,15,18,32.50
2009,08,01,15,19,32.60
2009,08,01,15,20,32.70
2009,08,01,15,21,32.80
2009,08,01,15,22,32.80
2009,08,01,15,23,32.80
2009,08,01,15,24,32.70
2009,08,01,15,25,32.70
2009,08,01,15,26,32.60
2009,08,01,15,27,32.50
2009,08,01,15,28,32.50
2009,08,01,15,29,32.50
2009,08,01,15,30,32.50
2009,08,01,15,31,32.60
2009,08,01,15,32,32.60
2009,08,01,15,33,32.60
2009,08,01,15,34,32.70
2009,08,01,15,35,32.70
2009,08,01,15,36,32.70
2009,08,01,15,37,32.80
2009,08,01,15,38,32.80
2009,08,01,15,39,32.80
2009,08,01,15,40,32.80
2009,08,01,15,41,32.80
2009,08,01,15,42,32.70
2009,08,01,15,43,32.70
2009,08,01,15,44,32.70
2009,08,01,15,45,32.70
2009,08,01,15,46,32.60
2009,08,01,15,47,32.60
2009,08,01,15,48,32.60
2009,08,01,15,49,32.60
2009,08,01,15,50,32.50
2009,08,01,15,51,32.50
2009,08,01,15,52,32.50
2009,08,01,15,53,32.50
2009,08,01,15,54,32.50
2009,08,01,15,55,32.50
2009,08,01,15,56,32.40
2009,08,01,15,57,32.30
2009,08,01,15,58,32.20
2009,08,01,15,59,32.10
2009,08,01,16,00,32.10
2009,08,01,16,01,32.00
2009,08,01,16,02,31.90
2009,08,01,16,03,31.90
2009,08,01,16,04,31.80
2009,08,01,16,05,31.70
2009,08,01,16,06,31.60
2009,08,01,16,07,31.50
2009,08,01,16,08,31.40
2009,08,01,16,09,31.40
2009,08,01,16,10,31.30
2009,08,01,16,11,31.30
2009,08,01,16,12,31.20
2009,08,01,16,13,31.20
2009,08,01,16,14,31.20
2009,08,01,16,15,31.20
2009,08,01,16,16,31.20
2009,08,01,16,17,31.20
2009,08,01,16,18,31.20
2009,08,01,16,19,31.20
2009,08,01,16,20,31.10
2009,08,01,16,21,31.10
2009,08,01,16,22,31.00
2009,08,01,16,23,31.00
2009,08,01,16,24,30.90
2009,08,01,16,25,30.90
2009,08,01,16,26,30.90
2009,08,01,16,27,30.80
2009,08,01,16,28,30.80
2009,08,01,16,29,30.80
2009,08,01,16,30,30.70
2009,08,01,16,31,30.70
2009,08,01,16,32,30.70
2009,08,01,16,33,30.70
2009,08,01,16,34,30.80
2009,08,01,16,35,30.80
2009,08,01,16,36,30.90
2009,08,01,16,37,30.90
2009,08,01,16,38,31.00
2009,08,01,16,39,31.00
2009,08,01,16,40,31.10
2009,08,01,16,41,31.10
2009,08,01,16,42,31.10
2009,08,01,16,43,31.10
2009,08,01,16,44,31.00
2009,08,01,16,45,31.00
2009,08,01,16,46,30.90
2009,08,01,16,47,30.80
2009,08,01,16,48,30.80
2009,08,01,16,49,30.80
2009,08,01,16,50,30.80
2009,08,01,16,51,30.80
2009,08,01,16,52,30.80
2009,08,01,16,53,30.90
2009,08,01,16,54,31.00
2009,08,01,16,55,31.10
2009,08,01,16,56,31.10
2009,08,01,16,57,31.10
2009,08,01,16,58,31.10
2009,08,01,16,59,31.10
2009,08,01,17,00,31.00
2009,08,01,17,01,30.90
2009,08,01,17,02,30.80
2009,08,01,17,03,30.60
2009,08,01,17,04,30.50
2009,08,01,17,05,30.50
2009,08,01,17,06,30.50
2009,08,01,17,07,30.50
2009,08,01,17,08,30.60
2009,08,01,17,09,30.60
2009,08,01,17,10,30.70
2009,08,01,17,11,30.80
2009,08,01,17,12,30.80
2009,08,01,17,13,30.90
2009,08,01,17,14,31.00
2009,08,01,17,15,31.00
2009,08,01,17,16,31.10
2009,08,01,17,17,31.10
2009,08,01,17,18,31.20
2009,08,01,17,19,31.20